When you browse on this site, cookies collect data to enhance your experience and personalize the content and advertising you see.
Visit our Privacy Policy to learn more. By continuing to use the site, you agree to this use of cookies and data.
  • In Sweden
  • List of Countries
  • For 7 days
  • Water Temperature
  • Weather Map
  • Weather Widgets
  • user-avatar
    Login

    Hourly Weather Dobrovillya

    Today, 21 November, Thursday

    Time Temperature Precipitation Wind Pressure Humidity
    00:00 -5°C° 0 mm 8 mps 767 mmHg 67%
    01:00 -6°C° 0 mm 8 mps 767 mmHg 68%
    02:00 -6°C° 0 mm 8 mps 768 mmHg 68%
    03:00 -7°C° 0 mm 8 mps 768 mmHg 65%
    04:00 -8°C° 0 mm 8 mps 768 mmHg 63%
    05:00 -10°C° 0 mm 8 mps 768 mmHg 60%
    06:00 -10°C° 0 mm 8 mps 769 mmHg 58%
    07:00 -10°C° 0 mm 8 mps 769 mmHg 56%
    08:00 -11°C° 0 mm 8 mps 769 mmHg 53%
    09:00 -10°C° 0 mm 8 mps 769 mmHg 48%
    10:00 -8°C° 0 mm 8 mps 769 mmHg 43%
    11:00 -7°C° 0 mm 8 mps 769 mmHg 38%
    12:00 -7°C° 0 mm 8 mps 769 mmHg 37%
    13:00 -7°C° 0 mm 8 mps 769 mmHg 35%
    14:00 -7°C° 0 mm 8 mps 769 mmHg 33%
    15:00 -8°C° 0 mm 8 mps 769 mmHg 32%
    16:00 -10°C° 0 mm 8 mps 769 mmHg 30%
    17:00 -9°C° 0 mm 7 mps 769 mmHg 28%
    18:00 -11°C° 0 mm 8 mps 770 mmHg 28%
    19:00 -11°C° 0 mm 8 mps 770 mmHg 29%
    20:00 -11°C° 0 mm 8 mps 770 mmHg 29%
    21:00 -11°C° 0 mm 8 mps 770 mmHg 31%
    22:00 -12°C° 0 mm 8 mps 770 mmHg 33%
    23:00 -12°C° 0 mm 7 mps 770 mmHg 35%

    Tomorrow, 22 November, Friday

    Time Temperature Precipitation Wind Pressure Humidity
    00:00 -12°C° 0 mm 7 mps 770 mmHg 37%
    01:00 -13°C° 0 mm 7 mps 770 mmHg 39%
    02:00 -13°C° 0 mm 7 mps 770 mmHg 41%
    03:00 -13°C° 0 mm 7 mps 770 mmHg 43%
    04:00 -13°C° 0 mm 7 mps 769 mmHg 46%
    05:00 -13°C° 0 mm 8 mps 769 mmHg 48%
    06:00 -13°C° 0 mm 8 mps 769 mmHg 47%
    07:00 -13°C° 0 mm 8 mps 770 mmHg 47%
    08:00 -12°C° 0 mm 8 mps 770 mmHg 46%
    09:00 -11°C° 0 mm 8 mps 769 mmHg 42%
    10:00 -10°C° 0 mm 8 mps 769 mmHg 37%
    11:00 -7°C° 0 mm 8 mps 769 mmHg 33%
    12:00 -7°C° 0 mm 8 mps 769 mmHg 32%
    13:00 -6°C° 0 mm 8 mps 768 mmHg 32%
    14:00 -6°C° 0 mm 8 mps 768 mmHg 31%
    15:00 -7°C° 0 mm 8 mps 768 mmHg 34%
    16:00 -7°C° 0 mm 7 mps 768 mmHg 36%
    17:00 -8°C° 0 mm 7 mps 768 mmHg 39%
    18:00 -8°C° 0 mm 7 mps 768 mmHg 40%
    19:00 -9°C° 0 mm 7 mps 768 mmHg 40%
    20:00 -9°C° 0 mm 7 mps 768 mmHg 41%
    21:00 -9°C° 0 mm 7 mps 768 mmHg 41%
    22:00 -9°C° 0 mm 7 mps 768 mmHg 42%
    23:00 -10°C° 0 mm 6 mps 768 mmHg 43%

    Day after tomorrow, 23 November, Saturday

    Time Temperature Precipitation Wind Pressure Humidity
    00:00 -10°C° 0 mm 6 mps 768 mmHg 44%
    01:00 -10°C° 0 mm 6 mps 768 mmHg 45%
    02:00 -11°C° 0 mm 7 mps 768 mmHg 46%
    03:00 -12°C° 0 mm 7 mps 767 mmHg 46%
    04:00 -12°C° 0 mm 7 mps 767 mmHg 47%
    05:00 -12°C° 0 mm 7 mps 767 mmHg 47%
    06:00 -12°C° 0 mm 7 mps 767 mmHg 47%
    07:00 -12°C° 0 mm 7 mps 767 mmHg 46%
    08:00 -11°C° 0 mm 7 mps 767 mmHg 46%
    09:00 -9°C° 0 mm 7 mps 767 mmHg 41%
    10:00 -7°C° 0 mm 7 mps 767 mmHg 35%
    11:00 -6°C° 0 mm 7 mps 767 mmHg 30%
    12:00 -4°C° 0 mm 7 mps 766 mmHg 29%
    13:00 -3°C° 0 mm 7 mps 766 mmHg 27%
    14:00 -3°C° 0 mm 7 mps 765 mmHg 26%
    15:00 -4°C° 0 mm 7 mps 765 mmHg 28%
    16:00 -6°C° 0 mm 7 mps 765 mmHg 30%
    17:00 -7°C° 0 mm 7 mps 765 mmHg 32%
    18:00 -7°C° 0 mm 7 mps 765 mmHg 33%
    19:00 -7°C° 0 mm 7 mps 765 mmHg 33%
    20:00 -7°C° 0 mm 7 mps 766 mmHg 33%
    21:00 -7°C° 0 mm 7 mps 765 mmHg 34%
    22:00 -8°C° 0 mm 7 mps 765 mmHg 35%
    23:00 -8°C° 0 mm 6 mps 765 mmHg 35%

    24 November, Sunday

    Time Temperature Precipitation Wind Pressure Humidity
    00:00 -8°C° 0 mm 6 mps 765 mmHg 36%
    01:00 -8°C° 0 mm 6 mps 765 mmHg 38%
    02:00 -9°C° 0 mm 6 mps 765 mmHg 39%
    03:00 -9°C° 0 mm 6 mps 765 mmHg 40%
    04:00 -9°C° 0 mm 6 mps 765 mmHg 41%
    05:00 -9°C° 0 mm 6 mps 765 mmHg 42%
    06:00 -9°C° 0 mm 6 mps 764 mmHg 43%
    07:00 -9°C° 0 mm 6 mps 764 mmHg 44%
    08:00 -9°C° 0 mm 7 mps 764 mmHg 44%
    09:00 -7°C° 0 mm 7 mps 764 mmHg 42%
    10:00 -6°C° 0 mm 7 mps 764 mmHg 39%
    11:00 -3°C° 0 mm 7 mps 764 mmHg 37%
    12:00 -3°C° 0 mm 7 mps 764 mmHg 35%
    13:00 -2°C° 0 mm 7 mps 763 mmHg 34%
    14:00 -2°C° 0 mm 7 mps 763 mmHg 33%
    15:00 -3°C° 0 mm 6 mps 763 mmHg 35%
    16:00 -4°C° 0 mm 6 mps 763 mmHg 36%
    17:00 -5°C° 0 mm 6 mps 763 mmHg 38%
    18:00 -5°C° 0 mm 6 mps 763 mmHg 40%
    19:00 -5°C° 0 mm 5 mps 763 mmHg 41%
    20:00 -6°C° 0 mm 5 mps 763 mmHg 42%
    21:00 -6°C° 0 mm 5 mps 763 mmHg 45%
    22:00 -6°C° 0 mm 5 mps 763 mmHg 48%
    23:00 -6°C° 0 mm 5 mps 762 mmHg 51%

    25 November, Monday

    Time Temperature Precipitation Wind Pressure Humidity
    00:00 -6°C° 0 mm 5 mps 762 mmHg 54%
    01:00 -7°C° 0 mm 5 mps 762 mmHg 57%
    02:00 -7°C° 0 mm 5 mps 762 mmHg 61%
    03:00 -7°C° 0 mm 5 mps 762 mmHg 63%
    04:00 -7°C° 0 mm 5 mps 762 mmHg 65%
    05:00 -7°C° 0 mm 5 mps 761 mmHg 67%
    06:00 -7°C° 0 mm 5 mps 761 mmHg 68%
    07:00 -7°C° 0 mm 5 mps 761 mmHg 68%
    08:00 -6°C° 0 mm 6 mps 761 mmHg 68%
    09:00 -5°C° 0 mm 6 mps 761 mmHg 65%
    10:00 -3°C° 0 mm 6 mps 761 mmHg 63%
    11:00 -1°C° 0 mm 6 mps 761 mmHg 60%
    12:00 +1°C° 0 mm 6 mps 761 mmHg 59%
    13:00 +1°C° 0 mm 6 mps 760 mmHg 58%
    14:00 +2°C° 0 mm 6 mps 760 mmHg 58%
    15:00 -1°C° 0 mm 6 mps 760 mmHg 61%
    16:00 -1°C° 0 mm 5 mps 760 mmHg 64%
    17:00 -4°C° 0 mm 5 mps 760 mmHg 67%
    18:00 -4°C° 0 mm 5 mps 760 mmHg 65%
    19:00 -4°C° 0 mm 5 mps 760 mmHg 64%
    20:00 -5°C° 0 mm 5 mps 759 mmHg 63%
    21:00 -5°C° 0 mm 5 mps 759 mmHg 63%
    22:00 -5°C° 0 mm 5 mps 759 mmHg 64%
    23:00 -4°C° 0 mm 4 mps 759 mmHg 64%

    26 November, Tuesday

    Time Temperature Precipitation Wind Pressure Humidity
    00:00 -5°C° 0 mm 5 mps 759 mmHg 64%
    01:00 -6°C° 0 mm 5 mps 759 mmHg 63%
    02:00 -6°C° 0 mm 5 mps 758 mmHg 63%
    03:00 -6°C° 0 mm 5 mps 758 mmHg 63%
    04:00 -6°C° 0 mm 5 mps 758 mmHg 62%
    05:00 -6°C° 0 mm 5 mps 758 mmHg 62%
    06:00 -6°C° 0 mm 5 mps 758 mmHg 61%
    07:00 -6°C° 0 mm 6 mps 758 mmHg 60%
    08:00 -6°C° 0 mm 6 mps 758 mmHg 59%
    09:00 -4°C° 0 mm 6 mps 758 mmHg 58%
    10:00 -3°C° 0 mm 6 mps 757 mmHg 58%
    11:00 -2°C° 0 mm 6 mps 757 mmHg 57%
    12:00 -1°C° 0 mm 6 mps 757 mmHg 58%
    13:00 0°C° 0 mm 5 mps 757 mmHg 59%
    14:00 +1°C° 0 mm 5 mps 756 mmHg 60%
    15:00 0°C° 0 mm 5 mps 756 mmHg 63%
    16:00 -1°C° 0 mm 5 mps 756 mmHg 66%
    17:00 -2°C° 0 mm 4 mps 756 mmHg 69%
    18:00 -2°C° 0 mm 4 mps 756 mmHg 69%
    19:00 -2°C° 0 mm 4 mps 756 mmHg 70%
    20:00 -2°C° 0 mm 4 mps 756 mmHg 71%
    21:00 -3°C° 0 mm 4 mps 756 mmHg 70%
    22:00 -3°C° 0 mm 4 mps 756 mmHg 69%
    23:00 -3°C° 0 mm 4 mps 756 mmHg 67%
    Show more